Monroe, MI

9:55 AM EDT on July 25, 2017 (GMT -0400)
Custer

Weather History for KTTF - December, 2012

Change the Weather History Date:

Monday, December 17, 2012

  Actual Average Record
Temperature  
Mean Temperature 42 °F -  
Max Temperature 44 °F 36 °F 63 °F (1984)
Min Temperature 41 °F 22 °F -6 °F (1951)
Degree Days  
Heating Degree Days 22    
Moisture  
Dew Point 38 °F    
Average Humidity 83    
Maximum Humidity 87    
Minimum Humidity 76    
Precipitation  
Precipitation 0.00 in - - ()
Sea Level Pressure  
Sea Level Pressure 29.67 in    
Wind  
Wind Speed 4 mph (West)    
Max Wind Speed 12 mph    
Max Gust Speed 17 mph    
Visibility 9 miles    
Events      
Averages and records for this station are not official NWS values.
T = Trace of Precipitation, MM = Missing Value Source: NWS Daily Summary

Daily Weather History Graph

Daily Weather History Graph

Search for Another Location

Airport or City:

Trip Planner

Search our weather history database for the weather conditions in past years. The results will help you decide how hot, cold, wet, or windy it might be!

Date:

Astronomy

Dec. 17, 2012 Rise Set
Actual Time 7:56 AM EST 5:04 PM EST
Civil Twilight 7:24 AM EST 5:35 PM EST
Nautical Twilight 6:49 AM EST 6:10 PM EST
Astronomical Twilight 6:15 AM EST 6:44 PM EST
Moon 11:00 AM EST (12/17) 10:29 PM EST (12/17)
Length of Visible Light 10h 11m
Length of Day
9h 07m
Waxing Crescent, 24% of the Moon is Illuminated
Dec 17
Waxing Crescent
Dec 20
First Quarter
Dec 28
Full
Jan 4
Last Quarter
Jan 11
New

Hourly Weather History & Observations

Time (EST) Temp. Windchill Dew Point Humidity Pressure Visibility Wind Dir Wind Speed Gust Speed Precip Events Conditions
12:13 AM 44.6 °F 38.8 °F 39.2 °F 81% 29.68 in 10.0 mi WSW 11.5 mph 17.3 mph N/A   Overcast
1:13 AM 44.6 °F 39.7 °F 39.2 °F 81% 29.68 in 10.0 mi West 9.2 mph - N/A   Overcast
1:33 AM 44.6 °F 39.2 °F 39.2 °F 81% 29.68 in 10.0 mi West 10.4 mph - N/A   Overcast
1:54 AM 44.6 °F 40.2 °F 39.2 °F 81% 29.68 in 10.0 mi West 8.1 mph - N/A   Overcast
2:14 AM 42.8 °F 38.0 °F 39.2 °F 87% 29.68 in 10.0 mi WSW 8.1 mph - N/A   Overcast
2:34 AM 44.6 °F 40.2 °F 39.2 °F 81% 29.69 in 10.0 mi West 8.1 mph - N/A   Overcast
2:54 AM 44.6 °F 41.4 °F 39.2 °F 81% 29.69 in 10.0 mi WSW 5.8 mph - N/A   Overcast
3:14 AM 42.8 °F 39.3 °F 39.2 °F 87% 29.69 in 10.0 mi West 5.8 mph - N/A   Overcast
3:34 AM 42.8 °F 41.1 °F 39.2 °F 87% 29.69 in 10.0 mi WSW 3.5 mph - N/A   Overcast
3:54 AM 42.8 °F 41.1 °F 39.2 °F 87% 29.69 in 10.0 mi WSW 3.5 mph - N/A   Overcast
4:14 AM 42.8 °F 41.1 °F 39.2 °F 87% 29.70 in 10.0 mi SW 3.5 mph - N/A   Overcast
4:34 AM 42.8 °F 41.1 °F 39.2 °F 87% 29.69 in 10.0 mi SW 3.5 mph - N/A   Overcast
4:55 AM 42.8 °F 41.1 °F 39.2 °F 87% 29.70 in 7.0 mi SW 3.5 mph - N/A   Overcast
5:15 AM 42.8 °F 40.1 °F 39.2 °F 87% 29.70 in 7.0 mi WSW 4.6 mph - N/A   Overcast
5:35 AM 42.8 °F 41.1 °F 39.2 °F 87% 29.71 in 7.0 mi WSW 3.5 mph - N/A   Overcast
5:55 AM 42.8 °F 41.1 °F 39.2 °F 87% 29.70 in 7.0 mi WSW 3.5 mph - N/A   Overcast
6:15 AM 42.8 °F 41.1 °F 39.2 °F 87% 29.71 in 7.0 mi SW 3.5 mph - N/A   Overcast
6:35 AM 42.8 °F 41.1 °F 39.2 °F 87% 29.71 in 7.0 mi WSW 3.5 mph - N/A   Overcast
7:15 AM 42.8 °F - 39.2 °F 87% 29.72 in 7.0 mi Calm Calm - N/A   Overcast
7:35 AM 42.8 °F 41.1 °F 39.2 °F 87% 29.73 in 7.0 mi WSW 3.5 mph - N/A   Overcast
7:55 AM 42.8 °F - 39.2 °F 87% 29.73 in 7.0 mi Calm Calm - N/A   Overcast
8:15 AM 42.8 °F - 39.2 °F 87% 29.73 in 7.0 mi Calm Calm - N/A   Overcast
8:36 AM 42.8 °F - 39.2 °F 87% 29.73 in 7.0 mi Calm Calm - N/A   Overcast
9:11 AM 42.8 °F - 39.2 °F 87% 29.73 in 5.0 mi Calm Calm - N/A   Overcast
9:31 AM 42.8 °F - 39.2 °F 87% 29.73 in 5.0 mi Calm Calm - N/A   Overcast
9:51 AM 42.8 °F - 39.2 °F 87% 29.73 in 7.0 mi Calm Calm - N/A   Overcast
10:11 AM 42.8 °F - 37.4 °F 81% 29.73 in 10.0 mi Calm Calm - N/A   Overcast
10:31 AM 42.8 °F - 37.4 °F 81% 29.72 in 10.0 mi Calm Calm - N/A   Overcast
10:51 AM 42.8 °F - 37.4 °F 81% 29.71 in 10.0 mi Calm Calm - N/A   Overcast
11:11 AM 42.8 °F - 37.4 °F 81% 29.70 in 10.0 mi Calm Calm - N/A   Overcast
11:32 AM 42.8 °F - 35.6 °F 76% 29.69 in 10.0 mi Calm Calm - N/A   Overcast
11:52 AM 42.8 °F - 35.6 °F 76% 29.68 in 10.0 mi Calm Calm - N/A   Overcast
12:12 PM 42.8 °F - 35.6 °F 76% 29.68 in 10.0 mi Calm Calm - N/A   Overcast
12:32 PM 42.8 °F - 35.6 °F 76% 29.67 in 10.0 mi Calm Calm - N/A   Overcast
12:52 PM 42.8 °F - 35.6 °F 76% 29.66 in 10.0 mi Calm Calm - N/A   Overcast
1:12 PM 42.8 °F - 35.6 °F 76% 29.66 in 10.0 mi Calm Calm - N/A   Overcast
1:32 PM 42.8 °F - 35.6 °F 76% 29.65 in 10.0 mi Calm Calm - N/A   Overcast
1:52 PM 42.8 °F - 35.6 °F 76% 29.65 in 10.0 mi Calm Calm - N/A   Overcast
2:12 PM 42.8 °F - 35.6 °F 76% 29.64 in 10.0 mi Calm Calm - N/A   Overcast
2:33 PM 42.8 °F - 37.4 °F 81% 29.64 in 7.0 mi Calm Calm - N/A   Overcast
2:53 PM 42.8 °F - 37.4 °F 81% 29.63 in 7.0 mi Calm Calm - N/A   Overcast
3:13 PM 42.8 °F 41.1 °F 37.4 °F 81% 29.63 in 7.0 mi North 3.5 mph - N/A   Overcast
3:33 PM 42.8 °F - 37.4 °F 81% 29.62 in 10.0 mi Calm Calm - N/A   Overcast
3:53 PM 42.8 °F 41.1 °F 37.4 °F 81% 29.62 in 7.0 mi North 3.5 mph - N/A   Overcast
4:13 PM 42.8 °F 40.1 °F 37.4 °F 81% 29.62 in 10.0 mi North 4.6 mph - N/A   Overcast
4:33 PM 42.8 °F - 35.6 °F 76% 29.62 in 10.0 mi Calm Calm - N/A   Overcast
4:53 PM 42.8 °F - 35.6 °F 76% 29.63 in 10.0 mi Calm Calm - N/A   Overcast
7:34 PM 41.0 °F - 37.4 °F 87% 29.61 in 7.0 mi Calm Calm - N/A   Overcast
7:54 PM 41.0 °F - 35.6 °F 81% 29.61 in 7.0 mi Calm Calm - N/A   Overcast
8:14 PM 41.0 °F - 35.6 °F 81% 29.60 in 7.0 mi Calm Calm - N/A   Overcast
8:34 PM 41.0 °F - 35.6 °F 81% 29.60 in 7.0 mi Calm Calm - N/A   Overcast
8:55 PM 41.0 °F - 37.4 °F 87% 29.60 in 7.0 mi Calm Calm - N/A   Overcast
9:15 PM 42.8 °F - 37.4 °F 81% 29.60 in 10.0 mi Calm Calm - N/A   Overcast
9:35 PM 41.0 °F 39.0 °F 37.4 °F 87% 29.60 in 10.0 mi North 3.5 mph - N/A   Overcast
9:55 PM 41.0 °F 38.0 °F 37.4 °F 87% 29.59 in 10.0 mi North 4.6 mph - N/A   Overcast
10:15 PM 41.0 °F 38.0 °F 37.4 °F 87% 29.60 in 10.0 mi North 4.6 mph - N/A   Overcast
10:35 PM 41.0 °F 38.0 °F 37.4 °F 87% 29.60 in 7.0 mi NNW 4.6 mph - N/A   Overcast
10:55 PM 41.0 °F 38.0 °F 37.4 °F 87% 29.61 in 7.0 mi NNW 4.6 mph - N/A   Overcast
11:15 PM 41.0 °F 38.0 °F 37.4 °F 87% 29.61 in 7.0 mi NNW 4.6 mph - N/A   Overcast
11:35 PM 41.0 °F 38.0 °F 37.4 °F 87% 29.62 in 7.0 mi NNW 4.6 mph - N/A   Light Drizzle
11:55 PM 41.0 °F 37.1 °F 37.4 °F 87% 29.62 in 7.0 mi NW 5.8 mph - N/A   Drizzle